Regional Weather Roundup
Issued by NWS

Home | Current Version | Previous Version | Graphics & Text | Print | Product List | Glossary On
Versions: 1 2 3 4 5 6 7 8 9 10 11 12 13 14 15 16 17 18 19 20 21 22 23 24 25 26 27 28 29 30 31 32 33 34 35 36 37 38 39 40 41 42 43 44 45 46 47 48 49 50
630
ASUS45 KCYS 100210
RWRWY

WYOMING REGIONAL WEATHER ROUNDUP
NATIONAL WEATHER SERVICE CHEYENNE WY
700 PM MST SAT DEC 09 2017

NOTE:  "FAIR" INDICATES FEW OR NO CLOUDS BELOW 12,000 FEET
WITH NO SIGNIFICANT WEATHER AND/OR OBSTRUCTIONS TO VISIBILITY.

WYZ001-100300-
YELLOWSTONE NATIONAL PARK

CITY           SKY/WX    TMP DP  RH WIND       PRES   REMARKS
LK YELLOWSTONE   N/A     13  11  92 NW3       30.57S
W YELLOWSTONE  NOT AVBL

$$
WYZ002>013-054>058-071-098>099-100300-
NORTHERN WYOMING

CITY           SKY/WX    TMP DP  RH WIND       PRES   REMARKS
JACKSON        FAIR      15  12  88 N7        30.59R WCI   5
CODY           FAIR      37   9  31 NW5       30.38R WCI  33
GREYBULL       FAIR      18   9  68 W5        30.39R WCI  11
WORLAND        FAIR      22  16  78 CALM      30.38R
SHERIDAN       FAIR      32  15  49 NW6       30.32R WCI  26
BUFFALO        FAIR      38   6  26 SW7       30.33S WCI  33
GILLETTE       FAIR      39  11  31 W16       30.28R WCI  30
HULETT         FAIR      41  12  30 SW9       30.27R
NEWCASTLE      FAIR      34  16  47 N9        30.28R WCI  26

$$
WYZ014>020-022>026-101>103-100300-
CENTRAL WYOMING

CITY           SKY/WX    TMP DP  RH WIND       PRES   REMARKS
BIG PINEY      FAIR      22  -1  36 E9        30.50R WCI  12
PINEDALE       FAIR      30   3  31 NW12      30.49S WCI  21
DUBOIS         FAIR      37  -6  15 W17G24    30.46R WCI  28
LANDER         FAIR      31  18  58 CALM      30.40R
RIVERTON       FAIR      25  15  66 NE5       30.42R WCI  19
CASPER         FAIR      33  16  49 SW12      30.39R WCI  24
DOUGLAS        FAIR      33  18  53 NW16      30.36R WCI  23

$$
WYZ021-027>030-104>119-100300-
SOUTHERN WYOMING

CITY           SKY/WX    TMP DP  RH WIND       PRES   REMARKS
EVANSTON       FAIR      31  17  56 S5        30.56R WCI  26
FORT BRIDGER   FAIR      30  13  50 W8        30.57R WCI  22
ROCK SPRINGS   FAIR      34   8  33 W13       30.49R WCI  25
DIXON          FAIR      21  15  78 E9        30.55R WCI  11
RAWLINS        FAIR      29  14  53 VRB3      30.47R
SARATOGA       FAIR      18  10  73 SE3       30.50R
LARAMIE        FAIR      24  12  60 SE6       30.43R WCI  17
CHEYENNE       FAIR      40   5  23 NW20      30.37R WCI  30
TORRINGTON     FAIR      36  14  40 W9        30.31R WCI  29
PINE BLUFFS    FAIR      37   9  30 MISG      30.35R

$$




USA.gov is the U.S. government's official web portal to all federal, state and local government web resources and services.